Weather History for Jackson, WY

Change the Weather History Date:

Sunday, November 24, 2013

  Actual Average Record
Temperature  
Mean Temperature 17 °F -  
Max Temperature 33 °F 32 °F 46 °F (1976)
Min Temperature 1 °F 9 °F -17 °F (1982)
Degree Days  
Heating Degree Days 48    
Moisture  
Dew Point 10 °F    
Average Humidity 89    
Maximum Humidity 100    
Minimum Humidity 41    
Precipitation  
Precipitation 0.00 in - - ()
Sea Level Pressure  
Sea Level Pressure 30.22 in    
Wind  
Wind Speed 5 mph (North)    
Max Wind Speed 10 mph    
Max Gust Speed -    
Visibility 10 miles    
Events      
Averages and records for this station are not official NWS values.
T = Trace of Precipitation, MM = Missing Value Source: NWS Daily Summary

Daily Weather History Graph

Daily Weather History Graph

Search for Another Location

Airport:

Trip Planner

Search our weather history database for the weather conditions in past years. The results will help you decide how hot, cold, wet, or windy it might be!

Date:

Astronomy

Nov. 24, 2013 Rise Set
Actual Time 7:28 AM MST 4:50 PM MST
Civil Twilight 6:56 AM MST 5:22 PM MST
Nautical Twilight 6:21 AM MST 5:57 PM MST
Astronomical Twilight 5:47 AM MST 6:31 PM MST
Moon 11:26 PM MST (11/24) 12:12 PM MST (11/24)
Length of Visible Light 10h 25m
Length of Day
9h 21m
Waning Gibbous, 60% of the Moon is Illuminated
Nov 24
Waning Gibbous
Nov 25
Last Quarter
Dec 2
New
Dec 9
First Quarter
Dec 17
Full

Hourly Weather History & Observations

Time (MST) Temp. Windchill Dew Point Humidity Pressure Visibility Wind Dir Wind Speed Gust Speed Precip Events Conditions
12:15 AM 8.6 °F -3.7 °F 6.8 °F 92% 30.27 in 10.0 mi North 8.1 mph - N/A   Clear
12:35 AM 8.6 °F -3.7 °F 6.8 °F 92% 30.26 in 10.0 mi North 8.1 mph - N/A   Partly Cloudy
12:55 AM 8.6 °F 2.0 °F 8.6 °F 100% 30.26 in 9.0 mi NNE 3.5 mph - N/A   Mostly Cloudy
1:15 AM 8.6 °F -4.7 °F 6.8 °F 92% 30.25 in 10.0 mi North 9.2 mph - N/A   Partly Cloudy
1:35 AM 10.4 °F -2.4 °F 10.4 °F 100% 30.26 in 10.0 mi North 9.2 mph - N/A   Clear
1:55 AM 8.6 °F 2.0 °F 6.8 °F 92% 30.25 in 10.0 mi North 3.5 mph - N/A   Partly Cloudy
2:15 AM 6.8 °F -3.5 °F 5.0 °F 92% 30.25 in 10.0 mi North 5.8 mph - N/A   Partly Cloudy
2:35 AM 6.8 °F -0.1 °F 6.8 °F 100% 30.25 in 10.0 mi NNE 3.5 mph - N/A   Clear
2:56 AM 6.8 °F -4.8 °F 6.8 °F 100% 30.25 in 10.0 mi North 6.9 mph - N/A   Partly Cloudy
3:15 AM 8.6 °F -2.6 °F 8.6 °F 100% 30.24 in 10.0 mi North 6.9 mph - N/A   Clear
3:35 AM 6.8 °F -4.8 °F 5.0 °F 92% 30.24 in 10.0 mi North 6.9 mph - N/A   Clear
3:55 AM 5.0 °F -2.1 °F 3.2 °F 92% 30.24 in 10.0 mi NNW 3.5 mph - N/A   Clear
4:15 AM 3.2 °F -4.2 °F 3.2 °F 100% 30.24 in 10.0 mi North 3.5 mph - N/A   Clear
4:35 AM 3.2 °F - 3.2 °F 100% 30.24 in 10.0 mi Calm Calm - N/A   Clear
4:55 AM 5.0 °F -2.1 °F 3.2 °F 92% 30.24 in 10.0 mi North 3.5 mph - N/A   Clear
5:35 AM 3.2 °F -7.8 °F 1.4 °F 92% 30.25 in 10.0 mi North 5.8 mph - N/A   Clear
5:55 AM 3.2 °F -9.1 °F 3.2 °F 100% 30.25 in 10.0 mi North 6.9 mph - N/A   Clear
6:15 AM 3.2 °F -9.1 °F 3.2 °F 100% 30.25 in 10.0 mi North 6.9 mph - N/A   Clear
6:35 AM 3.2 °F -7.8 °F 3.2 °F 100% 30.24 in 10.0 mi North 5.8 mph - N/A   Clear
6:51 AM 3.2 °F -10.3 °F 3.2 °F 100% 30.24 in 10.0 mi North 8.1 mph - N/A   Clear
7:56 AM 1.4 °F -8.3 °F 1.4 °F 100% 30.24 in 10.0 mi NW 4.6 mph - N/A   Clear
8:51 AM 8.6 °F 2.0 °F 8.6 °F 100% 30.24 in 10.0 mi North 3.5 mph - N/A   Clear
9:51 AM 14.0 °F 8.2 °F 10.4 °F 86% 30.23 in 10.0 mi NNW 3.5 mph - N/A   Clear
10:53 AM 19.4 °F 14.3 °F 12.2 °F 74% 30.22 in 10.0 mi North 3.5 mph - N/A   Clear
11:55 AM 24.8 °F - 15.8 °F 69% 30.19 in 10.0 mi Calm Calm - N/A   Clear
12:53 PM 26.6 °F - 15.8 °F 64% 30.16 in 10.0 mi Calm Calm - N/A   Clear
1:52 PM 30.2 °F - 14.0 °F 51% 30.14 in 10.0 mi Calm Calm - N/A   Clear
2:53 PM 32.0 °F 28.7 °F 12.2 °F 44% 30.13 in 10.0 mi South 3.5 mph - N/A   Clear
3:51 PM 33.8 °F 30.8 °F 12.2 °F 41% 30.14 in 10.0 mi South 3.5 mph - N/A   Clear
4:59 PM 26.6 °F - 15.8 °F 64% 30.15 in 10.0 mi Calm Calm - N/A   Clear
5:52 PM 24.8 °F - 17.6 °F 74% 30.16 in 10.0 mi Calm Calm - N/A   Clear
6:51 PM 21.2 °F - 17.6 °F 86% 30.17 in 10.0 mi Calm Calm - N/A   Clear
7:59 PM 17.6 °F 5.7 °F 15.8 °F 93% 30.18 in 10.0 mi North 10.4 mph - N/A   Clear
8:55 PM 17.6 °F 7.3 °F 15.8 °F 93% 30.20 in 10.0 mi North 8.1 mph - N/A   Clear
9:15 PM 17.6 °F 10.7 °F 15.8 °F 93% 30.20 in 10.0 mi North 4.6 mph - N/A   Mostly Cloudy
9:35 PM 17.6 °F 10.7 °F 15.8 °F 93% 30.20 in 10.0 mi NNE 4.6 mph - N/A   Mostly Cloudy
9:55 PM 17.6 °F - 15.8 °F 93% 30.20 in 10.0 mi Calm Calm - N/A   Clear
10:15 PM 15.8 °F 7.2 °F 15.8 °F 100% 30.21 in 10.0 mi North 5.8 mph - N/A   Partly Cloudy
10:35 PM 17.6 °F 10.7 °F 15.8 °F 93% 30.21 in 10.0 mi North 4.6 mph - N/A   Partly Cloudy
10:55 PM 17.6 °F - 15.8 °F 93% 30.22 in 10.0 mi Calm Calm - N/A   Clear
11:15 PM 15.8 °F 10.2 °F 15.8 °F 100% 30.22 in 10.0 mi North 3.5 mph - N/A   Clear
11:55 PM 15.8 °F - 15.8 °F 100% 30.22 in 10.0 mi Calm Calm - N/A   Partly Cloudy